Location: ????????
(55.6333°N, 37.7000°E)
Time: 13:43:26
(UTC+00:00)

DELTA 2 DEB (DPAF) - Pass Details

Date: 19 May 2025
Orbit: 538 x 548 km, 98.4° (Epoch: 19 June)

Event Time Altitude Azimuth Distance (km) Brightness Sun altitude
Rises 19:27:47 0° 18° (NNE) 2,736 8.1 -10.4°
Reaches altitude 10° 19:29:58 10° 23° (NNE) 1,834 7.1 -10.5°
Maximum altitude 19:33:52 55° 102° (ESE) 665 4.0 -10.8°
Enters shadow 19:37:10 14° 179° (S) 1,593 5.6 -11.0°
